User: anonymous   Login
Location: Fort Wayne
(41.1310°N, 85.1290°W)
Time: 07:24:13
(UTC-05:00)
Language:

SL-08 RB Rocket - Orbit

View from above orbital plane
View from above orbital plane
View from above satellite
View from above satellite

Ground track
Ground track

The orbit data is extracted from the following two-line orbital elements,

1 26387U 00033D   15025.30707112  .00000553  00000-0  10553-3 0  7208
2 26387 098.0798 095.3610 0026124 227.9820 177.3617 14.67665095779664
Epoch (UTC): 25 January 2015 07:22:10
Eccentricity: 0.0026124
inclination: 98.0798°
perigee height: 650 km
apogee height: 687 km
right ascension of ascending node: 95.3610°
argument of perigee: 227.9820°
revolutions per day: 14.67665095
mean anomaly at epoch: 177.3617°
orbit number at epoch: 77966

The dashed part of the orbit path shows where the satellite is in the earth's shadow,  

DLR